SL-16 DEB, 18417

Orbit data source: Space-Track

SL-16 DEB, 18417 is space debris in LEO originally from a launch on Wed, 18 Mar 1987 UTC launched from the Tyuratam Missile And Space Complex (TTMTR). Debris objects in space refer to the collection of defunct objects orbiting the Earth. Examples of debris include non-operational satellites, rocket bodies, and fragments generated from explosions, collisions, or faulty payload assembly.

Loading next visibility...
Identifier
18417, 1987-027D
Orbit
LEO
Country
Flag of CISCIS
Related business
Manufacturer
Yuzhnoe
Mission
Spacecraft
Bus & Motor
SEP MOTOR COVER, Unknown motor
Mass
~0 kg wet, ~1 kg dry
Launch date (UTC)
1987-03-18 (39 years ago)
Launch vehicle
Unknown
Launch site
Tyuratam Missile And Space Complex (TTMTR)
Object type
Payload
Rocket body
Debris
Shape & HBR
Unknown shape, 0.1 m
Radar Cross Section
Small (<0.1 m²)

Expand to show TLE details & history
Last TLE update: 8 hours ago

TLE from 8 hours ago
0 SL-16 DEB
1 18417U 87027D   25318.71392215  .00000296  00000-0  30802-3 0  9997
2 18417  71.0009  44.5184 0203245 222.8635 294.7210 13.74606835938042
Epoch: 2025-11-14T17:08Z
TLE epoch observation values (Epoch: 2025-11-14T17:08:02.873Z)
Latitude
23.16465°
Longitude
-94.97397°
Altitude
925.301 km
Speed
7.421 km/s
True Right ascension
14h 24m 21s
True Declination
23° 02' 36"
Sunlit
Object was in daylight at epoch
Visualization orbit readout
Latitude
Unknown
Longitude
Unknown
Altitude
Unknown
Speed
Unknown
Apparent Right ascension
Unknown
Apparent Declination
Unknown
Sunlit
N/A
Visualization observer readout
Local Sidereal Time
21:17:20
Azimuth
Unknown
Elevation
Unknown
Doppler factor
Unknown
Orbital elements
Apogee altitude
1,130.613 km
Perigee altitude
831.47 km
Semi-major axis
7,359.178 km
Eccentricity
0.02032
Inclination
71.0009°
RAAN
44.5184°
Arg. of periapsis
222.8635°
True anomaly
292.58321°
Mean anomaly
294.721°
Eccentric anomaly
293.65433°
Mean motion
3.43795 °/min
Orbital period
104.71 mins
BSTAR
0.00030802
Loading maneuver chart data...
Computing Atmospheric mass density...
Loading historical data...
Loading historical data...
Loading historical data...
Loading historical data...
Loading historical data...
Loading historical data...
Loading historical data...

Documentation

Showing up to 5 results
|